Back to catalog

STARLINK-35856

AliveCommunicationsVLEO
NORAD 67013·PAYLOAD·🇺🇸 United States

Launched Dec 10, 2025 from Vandenberg Space Force Base

Loading…

Next Passes (next 24 hours)

TLE

FreshSource: CelesTrak SupGP

Epoch: Sep 14, 2026, 15:28 UTC

1 67013C 25293L   26257.64493056  .00024552  00000+0  20573-2 0  2570
2 67013  70.0026 338.1580 0003617 276.2738 255.1228 14.98321834    13

Track STARLINK-35856 in real time with AllMySat

Download on the App Store